Zurück zum Katalog

ORBCOMM FM 110

AktivKommunikationLEO
NORAD 41182·PAYLOAD·🇺🇸 United States

Gestartet Dec 22, 2015 von Cape Canaveral Space Force Station

Loading…

Nächste Überflüge (nächste 24 Stunden)

TLE

AktuellSource: Space-Track

Epoche: Sep 14, 2026, 13:01 UTC

1 41182U 15081D   26257.54292204  .00000360  00000-0  11207-3 0  9994
2 41182  47.0022 298.9046 0002126 149.5865 210.5145 14.58988631570676

Verfolge ORBCOMM FM 110 in Echtzeit mit AllMySat

Download on the App Store